Montgomery, NY

6:12 PM EDT on October 01, 2016 (GMT -0400)
Orange County

Weather History for KMGJ - November, 2013

Change the Weather History Date:

Friday, November 1, 2013

  Actual Average (KPOU) Record (KPOU)
Temperature  
Mean Temperature 58 °F 46 °F  
Max Temperature 71 °F 58 °F 82 °F (1950)
Min Temperature 43 °F 34 °F 21 °F (1964)
Degree Days  
Heating Degree Days 7 19  
Month to date heating degree days 19  
Since 1 July heating degree days 595  
Cooling Degree Days 0 0  
Month to date cooling degree days 0  
Year to date cooling degree days 672  
Growing Degree Days 8 (Base 50)    
Moisture  
Dew Point 51 °F    
Average Humidity 73    
Maximum Humidity 93    
Minimum Humidity 37    
Precipitation  
Precipitation 0.20 in 0.12 in 1.28 in (1988)
Month to date precipitation 0.12  
Year to date precipitation 39.65  
Sea Level Pressure  
Sea Level Pressure 29.59 in    
Wind  
Wind Speed 12 mph (SW)    
Max Wind Speed 32 mph    
Max Gust Speed 59 mph    
Visibility 9 miles    
Events Rain    
T = Trace of Precipitation, MM = Missing Value Source: NWS Daily Summary

Daily Weather History Graph

Daily Weather History Graph

Search for Another Location

Airport or City:

Trip Planner

Search our weather history database for the weather conditions in past years. The results will help you decide how hot, cold, wet, or windy it might be!

Date:

Astronomy

Nov. 01, 2013 Rise Set
Actual Time 7:29 AM EDT 5:51 PM EDT
Civil Twilight 7:00 AM EDT 6:20 PM EDT
Nautical Twilight 6:27 AM EDT 6:53 PM EDT
Astronomical Twilight 5:55 AM EDT 7:25 PM EDT
Moon 5:17 AM EDT 4:44 PM EDT
Length of Visible Light 11h 20m
Length of Day
10h 22m
Waning Crescent, 4% of the Moon is Illuminated
Nov 1
Waning Crescent
Nov 3
New
Nov 10
First Quarter
Nov 17
Full
Nov 25
Last Quarter

Hourly Weather History & Observations

Time (EDT) Temp. Windchill Dew Point Humidity Pressure Visibility Wind Dir Wind Speed Gust Speed Precip Events Conditions
12:01 AM 62.6 °F - 57.2 °F 82% 29.74 in 10.0 mi SSW 11.5 mph 19.6 mph 0.00 in Rain Light Rain
12:54 AM 61.0 °F - 57.0 °F 87% 29.73 in 10.0 mi SSW 6.9 mph - 0.00 in Rain Light Rain
1:01 AM 60.8 °F - 57.2 °F 88% 29.71 in 10.0 mi South 6.9 mph - 0.00 in Rain Light Rain
1:54 AM 61.0 °F - 57.0 °F 87% 29.68 in 10.0 mi South 4.6 mph - 0.01 in   Overcast
2:54 AM 64.0 °F - 57.9 °F 80% 29.65 in 10.0 mi SSW 11.5 mph - N/A   Overcast
8:54 AM 70.0 °F - 61.0 °F 73% 29.47 in 10.0 mi SSW 16.1 mph 32.2 mph 0.00 in Rain Light Rain
9:13 AM 64.4 °F - 57.2 °F 77% 29.54 in 2.0 mi West 32.2 mph 58.7 mph 0.07 in Rain Heavy Rain
9:15 AM 62.6 °F - 55.4 °F 77% 29.54 in 1.0 mi West 26.5 mph 58.7 mph 0.14 in Rain Heavy Rain
9:26 AM 60.8 °F - 55.4 °F 82% 29.53 in 2.5 mi SW 17.3 mph 32.2 mph 0.19 in Rain Light Rain
9:33 AM 60.8 °F - 55.4 °F 82% 29.53 in 10.0 mi SW 12.7 mph 23.0 mph 0.19 in Rain Light Rain
9:54 AM 62.1 °F - 55.0 °F 78% 29.55 in 10.0 mi SW 15.0 mph 25.3 mph 0.19 in Rain Light Rain
10:54 AM 63.0 °F - 54.0 °F 72% 29.52 in 10.0 mi SSW 12.7 mph - 0.00 in   Overcast
11:54 AM 64.0 °F - 55.0 °F 73% 29.52 in 10.0 mi SW 10.4 mph 24.2 mph 0.00 in   Mostly Cloudy
12:54 PM 66.9 °F - 55.0 °F 66% 29.51 in 10.0 mi SSW 17.3 mph 25.3 mph N/A   Mostly Cloudy
1:54 PM 68.0 °F - 52.0 °F 56% 29.50 in 10.0 mi SW 15.0 mph 29.9 mph N/A   Mostly Cloudy
2:54 PM 69.1 °F - 51.1 °F 53% 29.50 in 10.0 mi SW 12.7 mph 21.9 mph N/A   Mostly Cloudy
3:54 PM 71.1 °F - 45.0 °F 39% 29.51 in 10.0 mi SW 15.0 mph 31.1 mph N/A   Partly Cloudy
4:54 PM 70.0 °F - 43.0 °F 38% 29.52 in 10.0 mi WSW 12.7 mph 21.9 mph N/A   Clear
5:54 PM 66.9 °F - 39.9 °F 37% 29.55 in 10.0 mi WSW 6.9 mph - N/A   Clear
6:54 PM 59.0 °F - 45.0 °F 60% 29.57 in 10.0 mi SSW 5.8 mph - N/A   Clear
7:54 PM 55.0 °F - 48.0 °F 77% 29.61 in 10.0 mi SW 5.8 mph - N/A   Clear
8:54 PM 51.1 °F - 46.0 °F 83% 29.64 in 10.0 mi SSE 3.5 mph - N/A   Clear
9:54 PM 45.0 °F 42.6 °F 43.0 °F 93% 29.65 in 10.0 mi South 4.6 mph - N/A   Clear
10:54 PM 46.0 °F - 42.1 °F 86% 29.69 in 10.0 mi Calm Calm - N/A   Clear
11:54 PM 43.0 °F - 41.0 °F 93% 29.69 in 10.0 mi Calm Calm - N/A   Clear